Corning, AR

7:35 AM CST on November 19, 2019 (GMT -0600)
Corning

Weather History for K4M9 - October, 2019

Change the Weather History Date:

Sunday, October 20, 2019

  Actual Average (KARG) Record (KARG)
Temperature  
Mean Temperature 64 °F -  
Max Temperature 73 °F 69 °F 86 °F (2003)
Min Temperature 55 °F 48 °F 39 °F (2006)
Degree Days  
Heating Degree Days 1    
Growing Degree Days 14 (Base 50)    
Moisture  
Dew Point 59 °F    
Average Humidity 85    
Maximum Humidity 100    
Minimum Humidity 60    
Precipitation  
Precipitation 0.00 in - - ()
Sea Level Pressure  
Sea Level Pressure 29.84 in    
Wind  
Wind Speed 5 mph ()    
Max Wind Speed 17 mph    
Max Gust Speed 18 mph    
Visibility 7.5 miles    
Events      
Averages and records for this station are not official NWS values.
T = Trace of Precipitation, MM = Missing Value Source: Averaged Metar Reports

Daily Weather History Graph

Daily Weather History Graph

Search for Another Location

Airport or City:

Astronomy

Oct. 20, 2019 Rise Set
Actual Time 7:14 AM CDT 6:20 PM CDT
Civil Twilight 6:47 AM CDT 6:46 PM CDT
Nautical Twilight 6:17 AM CDT 7:16 PM CDT
Astronomical Twilight 5:48 AM CDT 7:46 PM CDT
Moon 11:35 PM CDT (10/20) 1:35 PM CDT (10/20)
Length of Visible Light 11h 58m
Length of Day
11h 06m
Waning Gibbous, 59% of the Moon is Illuminated
Oct 20
Waning Gibbous
Oct 21
Last Quarter
Oct 27
New
Nov 4
First Quarter
Nov 12
Full

Hourly Weather History & Observations

Time (CDT) Temp. Dew Point Humidity Pressure Visibility Wind Dir Wind Speed Gust Speed Precip Events Conditions
12:15 AM 57.2 °F 57.2 °F 100% 29.81 in 2.0 mi Calm Calm - N/A   Overcast
12:35 AM 57.2 °F 57.2 °F 100% 29.81 in 2.0 mi Calm Calm - N/A   Overcast
1:15 AM 57.2 °F 57.2 °F 100% 29.82 in 3.0 mi Calm Calm - N/A   Overcast
1:55 AM 57.2 °F 57.2 °F 100% 29.82 in 2.0 mi Calm Calm - N/A   Overcast
2:35 AM 57.2 °F 57.2 °F 100% 29.82 in 3.0 mi Calm Calm - N/A   Overcast
2:55 AM 57.2 °F 57.2 °F 100% 29.83 in 6.0 mi Calm Calm - N/A   Overcast
3:15 AM 57.2 °F 57.2 °F 100% 29.82 in 1.5 mi Calm Calm - N/A   Overcast
3:35 AM 57.2 °F 57.2 °F 100% 29.82 in 1.5 mi Calm Calm - N/A   Overcast
3:55 AM 57.2 °F 57.2 °F 100% 29.83 in 1.8 mi Calm Calm - N/A   Overcast
4:15 AM 57.2 °F 57.2 °F 100% 29.83 in 1.8 mi North 3.5 mph - N/A   Overcast
4:35 AM 57.2 °F 57.2 °F 100% 29.83 in 2.0 mi NNE 6.9 mph - N/A   Overcast
5:15 AM 57.2 °F 57.2 °F 100% 29.85 in 2.5 mi Calm Calm - N/A   Overcast
5:35 AM 57.2 °F 57.2 °F 100% 29.86 in 2.5 mi North 4.6 mph - N/A   Overcast
5:55 AM 57.2 °F 57.2 °F 100% 29.86 in 2.0 mi Calm Calm - N/A   Overcast
6:15 AM 57.2 °F 57.2 °F 100% 29.86 in 2.0 mi North 5.8 mph - N/A   Overcast
6:35 AM 57.2 °F 57.2 °F 100% 29.87 in 2.5 mi North 4.6 mph - N/A   Overcast
6:55 AM 57.2 °F 57.2 °F 100% 29.88 in 3.0 mi Calm Calm - N/A   Overcast
7:15 AM 57.2 °F 57.2 °F 100% 29.88 in 3.0 mi ENE 4.6 mph - N/A   Overcast
7:35 AM 57.2 °F 57.2 °F 100% 29.88 in 4.0 mi Variable 4.6 mph - N/A   Overcast
7:55 AM 55.4 °F 55.4 °F 100% 29.88 in 2.5 mi NE 5.8 mph - N/A   Scattered Clouds
8:15 AM 57.2 °F 57.2 °F 100% 29.89 in 3.0 mi NE 4.6 mph - N/A   Clear
8:35 AM 57.2 °F 57.2 °F 100% 29.89 in 8.0 mi ENE 8.1 mph - N/A   Clear
8:55 AM 59.0 °F 57.2 °F 94% 29.90 in 10.0 mi ENE 9.2 mph - N/A   Clear
9:15 AM 60.8 °F 57.2 °F 88% 29.91 in 10.0 mi ENE 9.2 mph - N/A   Clear
9:35 AM 60.8 °F 57.2 °F 88% 29.92 in 10.0 mi ENE 12.7 mph 18.4 mph N/A   Mostly Cloudy
9:55 AM 60.8 °F 57.2 °F 88% 29.92 in 10.0 mi ENE 5.8 mph - N/A   Mostly Cloudy
10:15 AM 62.6 °F 57.2 °F 82% 29.92 in 10.0 mi ENE 10.4 mph - N/A   Mostly Cloudy
10:35 AM 62.6 °F 57.2 °F 82% 29.92 in 10.0 mi ENE 11.5 mph - N/A   Mostly Cloudy
10:55 AM 62.6 °F 57.2 °F 82% 29.92 in 10.0 mi ENE 9.2 mph - N/A   Overcast
11:15 AM 64.4 °F 59.0 °F 83% 29.92 in 10.0 mi ENE 6.9 mph - N/A   Scattered Clouds
11:35 AM 64.4 °F 57.2 °F 77% 29.92 in 10.0 mi ENE 8.1 mph - N/A   Scattered Clouds
11:55 AM 66.2 °F 59.0 °F 78% 29.91 in 10.0 mi ENE 9.2 mph - N/A   Scattered Clouds
12:15 PM 68.0 °F 57.2 °F 68% 29.90 in 10.0 mi ENE 8.1 mph - N/A   Clear
12:35 PM 68.0 °F 57.2 °F 68% 29.89 in 10.0 mi ESE 9.2 mph - N/A   Clear
12:55 PM 68.0 °F 57.2 °F 68% 29.88 in 10.0 mi East 9.2 mph 15.0 mph N/A   Clear
1:15 PM 69.8 °F 57.2 °F 64% 29.87 in 10.0 mi East 8.1 mph - N/A   Clear
1:35 PM 69.8 °F 57.2 °F 64% 29.86 in 10.0 mi SE 9.2 mph - N/A   Clear
1:55 PM 71.6 °F 57.2 °F 60% 29.85 in 10.0 mi ESE 6.9 mph - N/A   Clear
2:15 PM 71.6 °F 57.2 °F 60% 29.85 in 10.0 mi SE 8.1 mph - N/A   Clear
2:35 PM 71.6 °F 59.0 °F 64% 29.84 in 10.0 mi ESE 11.5 mph - N/A   Mostly Cloudy
2:55 PM 71.6 °F 59.0 °F 64% 29.83 in 10.0 mi East 9.2 mph - N/A   Mostly Cloudy
3:15 PM 71.6 °F 59.0 °F 64% 29.83 in 10.0 mi East 5.8 mph 12.7 mph N/A   Partly Cloudy
3:35 PM 73.4 °F 59.0 °F 61% 29.83 in 10.0 mi SE 8.1 mph - N/A   Partly Cloudy
3:55 PM 73.4 °F 60.8 °F 65% 29.83 in 10.0 mi ESE 9.2 mph - N/A   Clear
4:15 PM 73.4 °F 60.8 °F 65% 29.83 in 10.0 mi ESE 10.4 mph - N/A   Clear
4:35 PM 73.4 °F 60.8 °F 65% 29.83 in 10.0 mi ESE 10.4 mph - N/A   Clear
4:55 PM 73.4 °F 60.8 °F 65% 29.82 in 10.0 mi East 9.2 mph - N/A   Clear
5:15 PM 71.6 °F 60.8 °F 69% 29.82 in 10.0 mi East 10.4 mph - N/A   Clear
5:35 PM 71.6 °F 60.8 °F 69% 29.81 in 10.0 mi East 9.2 mph - N/A   Clear
5:55 PM 69.8 °F 60.8 °F 73% 29.80 in 10.0 mi East 8.1 mph - N/A   Clear
6:15 PM 68.0 °F 60.8 °F 78% 29.80 in 10.0 mi East 6.9 mph - N/A   Clear
6:35 PM 66.2 °F 60.8 °F 83% 29.79 in 10.0 mi East 8.1 mph - N/A   Clear
6:55 PM 66.2 °F 60.8 °F 83% 29.79 in 10.0 mi East 6.9 mph - N/A   Clear
7:35 PM 66.2 °F 60.8 °F 83% 29.79 in 10.0 mi East 5.8 mph - N/A   Clear
7:55 PM 64.4 °F 60.8 °F 88% 29.79 in 10.0 mi East 9.2 mph - N/A   Partly Cloudy
8:35 PM 64.4 °F 60.8 °F 88% 29.79 in 10.0 mi East 8.1 mph - N/A   Mostly Cloudy
8:55 PM 64.4 °F 60.8 °F 88% 29.79 in 10.0 mi ESE 8.1 mph - N/A   Mostly Cloudy
9:15 PM 64.4 °F 60.8 °F 88% 29.79 in 10.0 mi ESE 8.1 mph - N/A   Mostly Cloudy
9:35 PM 64.4 °F 62.6 °F 94% 29.79 in 10.0 mi ESE 9.2 mph - N/A   Mostly Cloudy
9:55 PM 64.4 °F 62.6 °F 94% 29.78 in 10.0 mi ESE 9.2 mph - N/A   Scattered Clouds
10:15 PM 66.2 °F 64.4 °F 94% 29.78 in 10.0 mi SE 13.8 mph - N/A   Scattered Clouds
10:35 PM 68.0 °F 64.4 °F 88% 29.77 in 10.0 mi SE 15.0 mph - N/A   Scattered Clouds
10:55 PM 68.0 °F 64.4 °F 88% 29.76 in 10.0 mi SE 11.5 mph - N/A   Partly Cloudy
11:15 PM 66.2 °F 64.4 °F 94% 29.74 in 9.0 mi SE 15.0 mph - N/A   Clear
11:35 PM 66.2 °F 64.4 °F 94% 29.73 in 7.0 mi SSE 17.3 mph - N/A   Clear
11:55 PM 66.2 °F 64.4 °F 94% 29.71 in 10.0 mi SE 13.8 mph - N/A   Scattered Clouds